FW0561 Weather Reports


time (UTC)temp
C
wind
direction
speed
KPH
gust
KPH
rain 1hr
cm
rain 24hr
cm
rain mn
cm
humidity
%
barometer
mb
20260506213219 31 288 3.2 22.5 0.00 0.00 0.00 8 1018.6
20260506212618 31 136 3.2 20.9 0.00 0.00 0.00 8 1018.7
20260506212018 31 306 4.8 17.7 0.00 0.00 0.00 7 1018.7
20260506211431 31 227 3.2 24.1 0.00 0.00 0.00 7 1018.8
20260506210818 31 256 0.0 17.7 0.00 0.00 0.00 7 1018.8
20260506210218 31 223 0.0 24.1 0.00 0.00 0.00 7 1019.0
20260506205618 31 210 1.6 38.6 0.00 0.00 0.00 7 1019.1
20260506205018 31 204 17.7 30.6 0.00 0.00 0.00 9 1019.1
20260506204418 31 194 4.8 32.2 0.00 0.00 0.00 8 1019.1
20260506203830 31 228 8.0 33.8 0.00 0.00 0.00 8 1019.2
20260506203218 31 174 6.4 30.6 0.00 0.00 0.00 8 1019.2
20260506202618 31 226 8.0 30.6 0.00 0.00 0.00 8 1019.2
20260506202018 31 250 4.8 29.0 0.00 0.00 0.00 7 1019.4
20260506201431 31 167 3.2 25.7 0.00 0.00 0.00 8 1019.4
20260506200818 31 194 4.8 22.5 0.00 0.00 0.00 7 1019.4
20260506200230 31 220 1.6 25.7 0.00 0.00 0.00 6 1019.4
20260506195618 31 169 1.6 22.5 0.00 0.00 0.00 7 1019.5
20260506195018 31 158 4.8 25.7 0.00 0.00 0.00 7 1019.6
20260506194418 30 231 3.2 29.0 0.00 0.00 0.00 7 1019.6
20260506193843 31 226 6.4 30.6 0.00 0.00 0.00 8 1019.9
20260506193218 31 245 3.2 27.4 0.00 0.00 0.00 7 1019.9
20260506192618 31 225 6.4 22.5 0.00 0.00 0.00 8 1019.9
20260506192019 30 166 0.0 22.5 0.00 0.00 0.00 6 1020.1
20260506191418 31 250 4.8 27.4 0.00 0.00 0.00 7 1020.2
20260506190818 30 222 0.0 16.1 0.00 0.00 0.00 8 1020.1
20260506190218 30 167 0.0 29.0 0.00 0.00 0.00 8 1020.2
20260506185618 31 250 3.2 22.5 0.00 0.00 0.00 8 1020.2
20260506185018 31 249 11.3 20.9 0.00 0.00 0.00 8 1020.2
20260506184418 31 161 1.6 20.9 0.00 0.00 0.00 10 1020.3
20260506183818 30 260 0.0 20.9 0.00 0.00 0.00 8 1020.3
20260506183218 30 254 9.7 22.5 0.00 0.00 0.00 9 1020.5
20260506182618 30 245 6.4 14.5 0.00 0.00 0.00 10 1020.6
20260506182018 30 333 1.6 14.5 0.00 0.00 0.00 8 1020.6
20260506181418 30 277 0.0 29.0 0.00 0.00 0.00 8 1020.7
20260506180818 30 179 3.2 16.1 0.00 0.00 0.00 8 1020.8
20260506180218 29 166 11.3 22.5 0.00 0.00 0.00 8 1020.8
20260506175618 30 252 1.6 24.1 0.00 0.00 0.00 8 1020.8
20260506175018 29 196 3.2 27.4 0.00 0.00 0.00 8 1020.8
20260506174418 29 235 6.4 25.7 0.00 0.00 0.00 7 1020.6
20260506173818 30 222 3.2 25.7 0.00 0.00 0.00 7 1020.8
20260506173218 29 216 0.0 19.3 0.00 0.00 0.00 7 1020.8
20260506172618 29 231 3.2 22.5 0.00 0.00 0.00 8 1020.9
20260506172018 29 248 0.0 22.5 0.00 0.00 0.00 9 1021.0
20260506171419 28 145 0.0 9.7 0.00 0.00 0.00 9 1021.0
20260506170818 28 233 3.2 8.0 0.00 0.00 0.00 9 1021.2
20260506170218 28 116 6.4 24.1 0.00 0.00 0.00 9 1021.2
20260506165618 27 73 4.8 20.9 0.00 0.00 0.00 10 1021.2
20260506165017 27 56 4.8 11.3 0.00 0.00 0.00 10 1021.0
20260506164418 27 86 3.2 11.3 0.00 0.00 0.00 9 1021.2
20260506163818 27 114 0.0 11.3 0.00 0.00 0.00 9 1021.2
20260506163218 27 180 0.0 20.9 0.00 0.00 0.00 9 1021.2
20260506162618 27 147 9.7 17.7 0.00 0.00 0.00 11 1021.0
20260506162018 27 132 4.8 14.5 0.00 0.00 0.00 10 1021.2
20260506161430 27 130 0.0 9.7 0.00 0.00 0.00 9 1021.2
20260506160830 27 119 0.0 8.0 0.00 0.00 0.00 9 1021.2
20260506160218 27 271 0.0 11.3 0.00 0.00 0.00 10 1021.2
20260506155618 26 284 3.2 6.4 0.00 0.00 0.00 11 1021.2
20260506155018 26 305 0.0 6.4 0.00 0.00 0.00 11 1021.2
20260506154418 26 99 0.0 8.0 0.00 0.00 0.00 11 1021.3
20260506153830 25 184 0.0 9.7 0.00 0.00 0.00 12 1021.3
20260506153218 25 78 4.8 9.7 0.00 0.00 0.00 12 1021.3
20260506152618 25 237 0.0 4.8 0.00 0.00 0.00 13 1021.5
20260506152018 24 151 1.6 8.0 0.00 0.00 0.00 13 1021.5
20260506151418 24 52 0.0 11.3 0.00 0.00 0.00 13 1021.3
20260506150818 23 117 0.0 9.7 0.00 0.00 0.00 15 1021.5
20260506150218 23 111 1.6 8.0 0.00 0.00 0.00 13 1021.5
20260506145618 22 129 3.2 6.4 0.00 0.00 0.00 17 1021.5
20260506145030 22 60 0.0 6.4 0.00 0.00 0.00 16 1021.6
20260506144418 21 91 3.2 8.0 0.00 0.00 0.00 21 1021.6
20260506143818 21 90 0.0 8.0 0.00 0.00 0.00 23 1021.6
20260506143218 20 118 0.0 8.0 0.00 0.00 0.00 27 1021.8
20260506142618 20 109 0.0 8.0 0.00 0.00 0.00 25 1021.8
20260506142043 20 135 1.6 6.4 0.00 0.00 0.00 26 1021.7
20260506141418 19 252 0.0 4.8 0.00 0.00 0.00 25 1021.7
20260506140818 18 265 0.0 3.2 0.00 0.00 0.00 25 1021.7
20260506140218 17 337 0.0 6.4 0.00 0.00 0.00 31 1021.6
20260506135618 17 331 1.6 4.8 0.00 0.00 0.00 32 1021.6
20260506135018 16 296 0.0 4.8 0.00 0.00 0.00 35 1021.7
20260506134418 16 308 0.0 4.8 0.00 0.00 0.00 35 1021.7
20260506133818 16 284 0.0 4.8 0.00 0.00 0.00 35 1021.5
20260506133218 15 291 0.0 3.2 0.00 0.00 0.00 37 1021.5
20260506132630 14 289 0.0 4.8 0.00 0.00 0.00 38 1021.5
20260506132031 13 309 0.0 6.4 0.00 0.00 0.00 41 1021.4
20260506131418 12 294 0.0 4.8 0.00 0.00 0.00 46 1021.5
20260506130818 11 311 0.0 8.0 0.00 0.00 0.00 49 1021.3
20260506130218 10 280 0.0 1.6 0.00 0.00 0.00 55 1021.2
20260506125617 8 253 0.0 4.8 0.00 0.00 0.00 65 1021.1
20260506125018 7 274 0.0 4.8 0.00 0.00 0.00 64 1021.1
20260506124418 6 256 0.0 4.8 0.00 0.00 0.00 68 1021.1
20260506123818 6 225 0.0 4.8 0.00 0.00 0.00 77 1021.1
20260506123230 5 252 0.0 0.0 0.00 0.00 0.00 74 1021.1
20260506122618 5 279 0.0 0.0 0.00 0.00 0.00 72 1021.0
20260506122018 6 279 0.0 0.0 0.00 0.00 0.00 71 1020.9
20260506121418 7 279 0.0 0.0 0.00 0.00 0.00 67 1020.9
20260506120818 7 279 0.0 4.8 0.00 0.00 0.00 62 1020.9
20260506120218 8 277 0.0 11.3 0.00 0.00 0.00 56 1020.8
20260506115617 7 271 3.2 9.7 0.00 0.00 0.00 59 1020.8
20260506115017 7 293 3.2 9.7 0.00 0.00 0.00 60 1020.7
20260506114418 7 286 3.2 9.7 0.00 0.00 0.00 62 1020.7
20260506113817 7 281 3.2 8.0 0.00 0.00 0.00 63 1020.7
20260506113218 6 301 1.6 9.7 0.00 0.00 0.00 67 1020.7
20260506112617 6 311 0.0 6.4 0.00 0.00 0.00 69 1020.7
20260506112018 5 279 0.0 6.4 0.00 0.00 0.00 70 1020.7
20260506111417 6 318 0.0 4.8 0.00 0.00 0.00 65 1020.7
20260506110830 6 13 0.0 6.4 0.00 0.00 0.00 62 1020.7
20260506110217 6 276 3.2 6.4 0.00 0.00 0.00 68 1020.7
20260506105655 5 265 3.2 6.4 0.00 0.00 0.00 70 1020.5
20260506105017 6 251 0.0 6.4 0.00 0.00 0.00 72 1020.4
20260506104443 6 326 0.0 6.4 0.00 0.00 0.00 67 1020.4
20260506103818 7 132 0.0 4.8 0.00 0.00 0.00 63 1020.4
20260506103217 6 335 3.2 8.0 0.00 0.00 0.00 65 1020.4
20260506102618 6 291 0.0 9.7 0.00 0.00 0.00 69 1020.4
20260506102017 6 288 4.8 6.4 0.00 0.00 0.00 72 1020.3
20260506101418 6 15 0.0 0.0 0.00 0.00 0.00 68 1020.2
20260506100830 7 15 0.0 6.4 0.00 0.00 0.00 62 1020.1
20260506100218 8 265 3.2 11.3 0.00 0.00 0.00 57 1020.1
20260506095618 7 274 3.2 8.0 0.00 0.00 0.00 63 1020.0
20260506095042 7 273 1.6 4.8 0.00 0.00 0.00 65 1019.8
20260506094417 6 273 1.6 4.8 0.00 0.00 0.00 66 1019.7
20260506093817 6 271 1.6 6.4 0.00 0.00 0.00 71 1019.8
20260506093242 7 312 0.0 4.8 0.00 0.00 0.00 62 1019.6
20260506092617 7 313 1.6 6.4 0.00 0.00 0.00 59 1019.6
20260506092018 7 289 3.2 4.8 0.00 0.00 0.00 62 1019.6
20260506091418 6 300 0.0 4.8 0.00 0.00 0.00 68 1019.6
20260506090818 6 266 3.2 4.8 0.00 0.00 0.00 70 1019.6
20260506090217 6 248 0.0 4.8 0.00 0.00 0.00 72 1019.4
20260506085618 6 318 0.0 4.8 0.00 0.00 0.00 67 1019.4
20260506085018 6 297 0.0 4.8 0.00 0.00 0.00 69 1019.3
20260506084418 6 220 0.0 4.8 0.00 0.00 0.00 70 1019.4
20260506083830 6 296 1.6 4.8 0.00 0.00 0.00 71 1019.4
20260506083217 7 209 0.0 0.0 0.00 0.00 0.00 62 1019.3
20260506082643 8 191 0.0 0.0 0.00 0.00 0.00 59 1019.4
20260506082017 9 315 0.0 0.0 0.00 0.00 0.00 55 1019.4
20260506081417 10 322 0.0 4.8 0.00 0.00 0.00 50 1019.5
20260506080818 11 254 0.0 6.4 0.00 0.00 0.00 44 1019.4
20260506080218 10 321 0.0 6.4 0.00 0.00 0.00 47 1019.4
20260506073217 11 313 1.6 6.4 0.00 0.00 0.00 39 1019.6
20260506072618 11 323 3.2 6.4 0.00 0.00 0.00 41 1019.6
20260506072018 12 302 0.0 8.0 0.00 0.00 0.00 39 1019.5
20260506071418 12 318 0.0 6.4 0.00 0.00 0.00 36 1019.5
20260506070818 12 306 1.6 12.9 0.00 0.00 0.00 36 1019.5
20260506070218 12 293 6.4 11.3 0.00 0.00 0.00 41 1019.5
20260506062017 12 279 4.8 9.7 0.00 0.00 0.00 39 1019.8
20260506061430 12 306 3.2 9.7 0.00 0.00 0.00 39 1019.7
20260506060830 13 284 0.0 4.8 0.00 0.00 0.00 34 1019.8
20260506060217 13 278 1.6 9.7 0.00 0.00 0.00 34 1019.8
20260506050818 12 299 4.8 9.7 0.00 0.00 0.00 46 1019.6
20260506050230 12 304 3.2 4.8 0.00 0.00 0.00 45 1019.8
20260506045017 13 286 0.0 4.8 0.00 0.00 0.00 42 1019.6
20260506044417 12 279 1.6 4.8 0.00 0.00 0.00 37 1019.5
20260506043830 11 289 1.6 6.4 0.00 0.00 0.00 44 1019.5
20260506043218 11 308 3.2 4.8 0.00 0.00 0.00 53 1019.5
20260506042617 12 297 3.2 4.8 0.00 0.00 0.00 44 1019.5
20260506042018 13 297 3.2 3.2 0.00 0.00 0.00 34 1019.3
20260506041417 13 289 0.0 4.8 0.00 0.00 0.00 39 1019.3
20260506040817 12 288 3.2 6.4 0.00 0.00 0.00 47 1019.2
20260506040219 13 144 0.0 6.4 0.00 0.00 0.00 41 1019.2
20260506035617 13 144 0.0 6.4 0.00 0.00 0.00 40 1019.2
20260506035017 13 317 0.0 3.2 0.00 0.00 0.00 47 1019.0
20260506034418 15 230 0.0 3.2 0.00 0.00 0.00 41 1018.9
20260506033817 16 230 0.0 3.2 0.00 0.00 0.00 31 1018.9
20260506033218 17 164 0.0 3.2 0.00 0.00 0.00 27 1018.8
20260506032618 19 164 0.0 6.4 0.00 0.00 0.00 25 1018.6
20260506032030 21 328 3.2 9.7 0.00 0.00 0.00 23 1018.6
20260506031417 21 316 3.2 11.3 0.00 0.00 0.00 22 1018.5
20260506030818 21 316 3.2 11.3 0.00 0.00 0.00 20 1018.4
20260506030218 22 309 4.8 12.9 0.00 0.00 0.00 20 1018.4
20260506025617 22 303 6.4 14.5 0.00 0.00 0.00 19 1018.4
20260506025017 22 327 4.8 16.1 0.00 0.00 0.00 19 1018.4
20260506024443 22 334 4.8 17.7 0.00 0.00 0.00 19 1018.2
20260506023818 23 331 3.2 14.5 0.00 0.00 0.00 18 1018.1
20260506023218 23 314 3.2 17.7 0.00 0.00 0.00 18 1018.1
20260506022617 22 350 3.2 14.5 0.00 0.00 0.00 18 1018.1
20260506022018 22 303 6.4 14.5 0.00 0.00 0.00 21 1018.0
20260506021417 22 285 3.2 11.3 0.00 0.00 0.00 20 1017.9
20260506020818 23 318 4.8 14.5 0.00 0.00 0.00 19 1017.9
20260506020217 23 331 4.8 12.9 0.00 0.00 0.00 18 1017.8
20260506015618 24 350 3.2 17.7 0.00 0.00 0.00 18 1017.7
20260506015030 25 328 6.4 17.7 0.00 0.00 0.00 17 1017.6
20260506014418 25 338 4.8 19.3 0.00 0.00 0.00 16 1017.6
20260506013817 25 321 4.8 16.1 0.00 0.00 0.00 16 1017.5
20260506013217 25 313 1.6 14.5 0.00 0.00 0.00 17 1017.4
20260506012618 25 330 4.8 14.5 0.00 0.00 0.00 16 1017.3
20260506012017 25 319 6.4 22.5 0.00 0.00 0.00 16 1017.2
20260506011430 25 337 3.2 19.3 0.00 0.00 0.00 17 1017.2
20260506010817 26 326 6.4 19.3 0.00 0.00 0.00 17 1017.1
20260506010217 26 319 4.8 17.7 0.00 0.00 0.00 16 1017.0
20260506005617 26 6 4.8 11.3 0.00 0.00 0.00 16 1017.0
20260506005018 26 298 3.2 12.9 0.00 0.00 0.00 15 1017.0
20260506004430 26 312 4.8 12.9 0.00 0.00 0.00 15 1017.0
20260506003817 27 304 3.2 11.3 0.00 0.00 0.00 15 1017.0
20260506003217 28 271 1.6 16.1 0.00 0.00 0.00 13 1016.9
20260506002617 29 292 3.2 14.5 0.00 0.00 0.00 7 1016.9
20260506002018 30 241 4.8 12.9 0.00 0.00 0.00 7 1016.9
20260506001417 30 233 3.2 16.1 0.00 0.00 0.00 6 1016.9
20260506000817 30 280 0.0 12.9 0.00 0.00 0.00 6 1016.9
20260506000219 31 262 4.8 14.5 0.00 0.00 0.00 7 1016.8
20260505235618 31 238 3.2 17.7 0.00 0.00 0.00 5 1016.7
20260505235018 31 263 0.0 12.9 0.00 0.00 0.00 7 1016.7
20260505234430 31 218 3.2 14.5 0.00 0.00 0.00 6 1016.7
20260505233817 31 146 0.0 17.7 0.00 0.00 0.00 6 1016.8
20260505233218 31 263 6.4 22.5 0.00 0.00 0.00 6 1016.7
20260505232617 31 301 4.8 19.3 0.00 0.00 0.00 8 1016.7
20260505232030 31 262 4.8 25.7 0.00 0.00 0.00 8 1016.7
20260505231418 32 256 3.2 14.5 0.00 0.00 0.00 6 1016.7
20260505230818 31 192 4.8 27.4 0.00 0.00 0.00 6 1016.8
20260505230217 32 266 1.6 20.9 0.00 0.00 0.00 7 1016.7
20260505225630 32 196 3.2 20.9 0.00 0.00 0.00 7 1016.8
20260505225030 32 285 6.4 24.1 0.00 0.00 0.00 8 1016.7
20260505224417 32 222 0.0 14.5 0.00 0.00 0.00 7 1016.8
20260505223818 32 218 3.2 16.1 0.00 0.00 0.00 7 1016.9
20260505223244 32 292 3.2 17.7 0.00 0.00 0.00 7 1016.9
20260505222630 32 176 3.2 24.1 0.00 0.00 0.00 6 1016.9
20260505222017 32 175 3.2 27.4 0.00 0.00 0.00 7 1017.1
20260505221508 32 298 8.0 25.7 0.00 0.00 0.00 9 1016.9
20260505220830 32 137 3.2 19.3 0.00 0.00 0.00 7 1017.1
20260505220218 32 222 3.2 22.5 0.00 0.00 0.00 7 1017.1
20260505215617 32 197 4.8 20.9 0.00 0.00 0.00 8 1017.2
20260505215017 31 190 4.8 22.5 0.00 0.00 0.00 9 1017.2
20260505214417 31 216 1.6 14.5 0.00 0.00 0.00 9 1017.3
20260505213817 32 232 3.2 17.7 0.00 0.00 0.00 9 1017.5